Location: LDNL
(36.4545°S, 141.6685°E)
Time: 12:23:01
(UTC+10:00)

Explorer 7 - Pass Details

Date: 14 August 2022
Orbit: 482 x 668 km, 50.3° (Epoch: 26 September)

Event Time Altitude Azimuth Distance (km) Brightness Sun altitude
Rises 16:01:21 0° 353° (N) 2,987 11.2 20.2°
Reaches altitude 10° 16:04:23 10° 12° (NNE) 2,091 10.2 19.7°
Maximum altitude 16:07:31 17° 53° (NE) 1,669 9.2 19.2°
Drops below altitude 10° 16:10:39 10° 93° (E) 2,100 9.4 18.7°
Sets 16:13:42 0° 112° (ESE) 3,004 10.0 18.2°
